TimeCDT,TemperatureF,Dew PointF,Humidity,Sea Level PressureIn,VisibilityMPH,Wind Direction,Wind SpeedMPH,Gust SpeedMPH,PrecipitationIn,Events,Conditions,WindDirDegrees,DateUTC
12:15 AM,45.9,43.5,92,30.12,10.0,East,5.8,-,N/A,,Clear,100,2013-10-15 05:15:00
12:35 AM,46.4,43.7,90,30.11,10.0,East,5.8,-,N/A,,Clear,100,2013-10-15 05:35:00
12:55 AM,47.5,44.4,89,30.11,10.0,ESE,5.8,-,N/A,,Clear,110,2013-10-15 05:55:00
1:15 AM,48.2,45.0,89,30.10,10.0,East,5.8,-,N/A,,Clear,100,2013-10-15 06:15:00
1:35 AM,48.7,45.5,89,30.09,10.0,ESE,6.9,-,N/A,,Clear,110,2013-10-15 06:35:00
1:55 AM,49.1,45.7,88,30.08,10.0,ESE,4.6,-,N/A,,Clear,110,2013-10-15 06:55:00
2:15 AM,49.5,46.0,88,30.08,10.0,East,6.9,-,N/A,,Clear,100,2013-10-15 07:15:00
2:35 AM,49.5,46.0,88,30.07,10.0,ESE,5.8,-,N/A,,Clear,120,2013-10-15 07:35:00
2:55 AM,49.5,46.2,89,30.06,10.0,ESE,5.8,-,N/A,,Clear,110,2013-10-15 07:55:00
3:15 AM,49.8,46.6,89,30.05,10.0,ESE,6.9,-,N/A,,Clear,110,2013-10-15 08:15:00
3:35 AM,51.1,47.3,87,30.04,10.0,SE,6.9,-,N/A,,Clear,130,2013-10-15 08:35:00
3:55 AM,50.9,47.3,87,30.03,10.0,SE,8.1,-,N/A,,Clear,130,2013-10-15 08:55:00
4:15 AM,51.8,47.5,85,30.03,10.0,SE,6.9,-,N/A,,Clear,130,2013-10-15 09:15:00
4:35 AM,52.2,47.5,84,30.02,10.0,SE,6.9,-,N/A,,Clear,130,2013-10-15 09:35:00
4:55 AM,52.3,47.7,84,30.01,10.0,ESE,8.1,-,N/A,,Clear,120,2013-10-15 09:55:00
5:15 AM,52.7,47.7,83,30.00,10.0,ESE,10.4,-,N/A,,Clear,120,2013-10-15 10:15:00
5:35 AM,52.7,47.5,82,29.99,10.0,ESE,9.2,-,N/A,,Scattered Clouds,120,2013-10-15 10:35:00
5:55 AM,52.9,47.3,81,29.98,10.0,ESE,10.4,17.3,N/A,,Mostly Cloudy,120,2013-10-15 10:55:00
6:15 AM,53.1,47.3,81,29.97,10.0,SE,11.5,-,N/A,,Overcast,130,2013-10-15 11:15:00
6:35 AM,53.6,46.9,78,29.96,10.0,SE,6.9,-,N/A,,Overcast,130,2013-10-15 11:35:00
6:55 AM,53.2,46.8,79,29.95,10.0,SE,4.6,-,N/A,,Mostly Cloudy,130,2013-10-15 11:55:00
7:15 AM,53.6,46.6,77,29.94,10.0,SE,9.2,-,N/A,,Scattered Clouds,130,2013-10-15 12:15:00
7:35 AM,53.2,46.9,79,29.94,10.0,SSE,5.8,-,N/A,,Mostly Cloudy,150,2013-10-15 12:35:00
7:55 AM,53.6,46.9,78,29.93,10.0,SE,8.1,-,N/A,Rain,Light Rain,130,2013-10-15 12:55:00
8:15 AM,52.9,47.5,82,29.91,10.0,ESE,8.1,-,N/A,,Overcast,120,2013-10-15 13:15:00
8:35 AM,53.2,47.7,81,29.91,10.0,SE,8.1,-,N/A,,Overcast,130,2013-10-15 13:35:00
8:55 AM,53.6,47.8,81,29.91,10.0,SE,6.9,-,N/A,Rain,Rain,140,2013-10-15 13:55:00
9:15 AM,52.5,49.1,88,29.90,5.0,SE,8.1,-,0.01,Rain,Light Rain,130,2013-10-15 14:15:00
9:35 AM,52.3,49.6,91,29.90,7.0,SSE,8.1,-,0.03,Rain,Rain,150,2013-10-15 14:35:00
9:55 AM,52.2,50.0,92,29.89,7.0,SSE,5.8,-,0.05,Rain,Light Rain,150,2013-10-15 14:55:00
10:15 AM,52.2,50.5,94,29.88,4.0,SSE,5.8,-,0.02,,Drizzle,150,2013-10-15 15:15:00
10:35 AM,52.0,50.9,96,29.87,3.0,SE,6.9,-,0.09,Rain,Rain,140,2013-10-15 15:35:00
10:55 AM,52.3,51.4,97,29.86,4.0,SE,8.1,-,0.12,Rain,Light Rain,130,2013-10-15 15:55:00
11:15 AM,52.9,51.8,96,29.85,5.0,SSE,6.9,-,N/A,,Light Drizzle,150,2013-10-15 16:15:00
11:35 AM,52.9,51.8,96,29.84,5.0,SSE,6.9,-,0.02,Rain,Light Rain,150,2013-10-15 16:35:00
11:55 AM,53.6,52.5,96,29.83,4.0,SSE,6.9,-,0.05,Rain,Light Rain,150,2013-10-15 16:55:00
12:15 PM,53.6,52.7,97,29.82,3.0,SSE,5.8,-,0.01,,Drizzle,160,2013-10-15 17:15:00
12:35 PM,53.8,53.1,97,29.81,4.0,South,6.9,-,0.02,Rain,Light Rain,170,2013-10-15 17:35:00
12:55 PM,54.7,53.8,97,29.81,3.0,South,6.9,-,0.02,,Overcast,170,2013-10-15 17:55:00
1:15 PM,55.0,54.5,98,29.80,2.0,South,6.9,-,N/A,,Overcast,180,2013-10-15 18:15:00
1:35 PM,55.4,54.7,97,29.79,2.0,South,6.9,-,N/A,,Overcast,180,2013-10-15 18:35:00
1:55 PM,55.4,54.9,98,29.78,2.0,South,4.6,-,N/A,,Overcast,170,2013-10-15 18:55:00
2:15 PM,55.9,55.4,98,29.77,2.5,South,6.9,-,N/A,,Overcast,180,2013-10-15 19:15:00
2:35 PM,56.3,55.8,98,29.76,2.5,South,8.1,-,N/A,,Overcast,180,2013-10-15 19:35:00
2:55 PM,57.0,56.3,97,29.75,3.0,South,5.8,-,N/A,,Overcast,190,2013-10-15 19:55:00
3:15 PM,58.1,57.0,96,29.74,4.0,SSW,5.8,-,N/A,,Overcast,200,2013-10-15 20:15:00
3:35 PM,58.1,57.0,96,29.74,4.0,SSW,6.9,-,N/A,,Overcast,210,2013-10-15 20:35:00
3:55 PM,58.6,57.2,95,29.74,4.0,South,5.8,-,N/A,,Overcast,190,2013-10-15 20:55:00
4:15 PM,59.0,57.4,94,29.74,5.0,South,3.5,-,N/A,,Overcast,180,2013-10-15 21:15:00
4:35 PM,59.0,57.6,95,29.73,5.0,South,3.5,-,N/A,,Overcast,170,2013-10-15 21:35:00
4:55 PM,59.4,57.6,94,29.73,5.0,South,4.6,-,N/A,,Overcast,170,2013-10-15 21:55:00
5:15 PM,59.2,57.6,94,29.73,5.0,SSW,6.9,-,N/A,,Overcast,210,2013-10-15 22:15:00
5:35 PM,59.7,56.5,89,29.74,10.0,WSW,11.5,-,N/A,,Overcast,250,2013-10-15 22:35:00
5:55 PM,57.9,52.7,83,29.74,10.0,SW,8.1,-,N/A,,Mostly Cloudy,230,2013-10-15 22:55:00
6:15 PM,56.5,51.8,84,29.74,10.0,SW,8.1,-,N/A,,Scattered Clouds,230,2013-10-15 23:15:00
6:35 PM,56.5,50.9,82,29.75,10.0,WSW,12.7,17.3,N/A,,Mostly Cloudy,240,2013-10-15 23:35:00
6:55 PM,55.9,48.0,75,29.77,10.0,WSW,11.5,23.0,N/A,,Overcast,240,2013-10-15 23:55:00
7:15 PM,53.6,45.0,73,29.78,10.0,WSW,17.3,23.0,N/A,,Overcast,240,2013-10-16 00:15:00
7:55 PM,50.4,43.0,76,29.80,10.0,WSW,5.8,-,N/A,,Clear,240,2013-10-16 00:55:00
8:15 PM,50.0,43.2,77,29.80,10.0,SW,6.9,-,N/A,,Scattered Clouds,230,2013-10-16 01:15:00
8:35 PM,49.6,44.1,81,29.80,10.0,SSW,5.8,-,N/A,,Overcast,210,2013-10-16 01:35:00
8:55 PM,50.2,44.1,79,29.80,10.0,SW,6.9,-,N/A,,Overcast,230,2013-10-16 01:55:00
9:15 PM,50.9,43.7,76,29.80,10.0,SW,8.1,-,N/A,,Overcast,230,2013-10-16 02:15:00
9:35 PM,50.7,43.5,76,29.80,10.0,WSW,8.1,-,N/A,,Overcast,240,2013-10-16 02:35:00
9:55 PM,50.4,43.2,76,29.80,10.0,WSW,6.9,-,N/A,,Overcast,240,2013-10-16 02:55:00
10:15 PM,50.0,42.8,76,29.80,10.0,WSW,6.9,-,N/A,,Overcast,250,2013-10-16 03:15:00
10:35 PM,49.8,42.8,77,29.79,10.0,WSW,8.1,-,N/A,,Overcast,240,2013-10-16 03:35:00
10:55 PM,49.6,42.4,76,29.79,10.0,WSW,10.4,16.1,N/A,,Overcast,240,2013-10-16 03:55:00
11:15 PM,50.0,42.3,75,29.79,10.0,WSW,9.2,-,N/A,,Overcast,240,2013-10-16 04:15:00
11:35 PM,50.0,42.1,74,29.78,10.0,SW,11.5,-,N/A,,Overcast,230,2013-10-16 04:35:00
11:55 PM,49.6,42.3,76,29.78,10.0,WSW,12.7,18.4,N/A,,Overcast,240,2013-10-16 04:55:00